This is the latest recevied weather packets stored in our database for station/object KD8BMB. If no packets are shown the sender has not sent any weather packets the latest 10 day(s).
| Time | Temp. | Humidity | Pressure | Rain* | Wind** | Luminosity | Snow |
|---|---|---|---|---|---|---|---|
| 1778075046 | 7.78° C | 71% | 1012.7 hPa | 0 mm | - | 528 W/m² | - |
| 1778074744 | 6.67° C | 72% | 1012.5 hPa | 0 mm | - | 511 W/m² | - |
| 1778074440 | 6.67° C | 73% | 1012.3 hPa | 0 mm | - | 470 W/m² | - |
| 1778074137 | 6.67° C | 74% | 1012.2 hPa | 0 mm | - | 415 W/m² | - |
| 1778073834 | 6.67° C | 74% | 1012.4 hPa | 0 mm | - | 384 W/m² | - |
| 1778073532 | 6.11° C | 75% | 1012.3 hPa | 0 mm | - | 367 W/m² | - |
| 1778073228 | 6.67° C | 75% | 1012.3 hPa | 0 mm | - | 366 W/m² | - |
| 1778072926 | 6.11° C | 75% | 1012.2 hPa | 0 mm | - | 308 W/m² | - |
| 1778072622 | 5.56° C | 76% | 1012.3 hPa | 0 mm | - | 308 W/m² | - |
| 1778072320 | 6.11° C | 75% | 1012.1 hPa | 0 mm | - | 307 W/m² | - |
| 1778072018 | 6.11° C | 74% | 1012.2 hPa | 0 mm | - | 279 W/m² | - |
| 1778071716 | 5.56° C | 74% | 1012 hPa | 0 mm | - | 297 W/m² | - |
| 1778071412 | 6.11° C | 73% | 1012.3 hPa | 0 mm | - | 269 W/m² | - |
| 1778071110 | 5.56° C | 73% | 1012.2 hPa | 0 mm | - | 196 W/m² | - |
| 1778070808 | 5° C | 74% | 1012.1 hPa | 0 mm | - | 201 W/m² | - |
| 1778070505 | 5.56° C | 75% | 1011.9 hPa | 0 mm | - | 193 W/m² | - |
| 1778070202 | 5° C | 77% | 1011.8 hPa | 0 mm | - | 121 W/m² | - |
| 1778069901 | 4.44° C | 78% | 1011.8 hPa | 0 mm | - | 166 W/m² | - |
| 1778069597 | 4.44° C | 77% | 1011.5 hPa | 0 mm | - | 94 W/m² | - |
| 1778069294 | 4.44° C | 78% | 1011.7 hPa | 0 mm | - | 93 W/m² | - |
| 1778068992 | 4.44° C | 79% | 1011.5 hPa | 0 mm | - | 122 W/m² | - |
| 1778068689 | 3.89° C | 80% | 1011.7 hPa | 0 mm | - | 118 W/m² | - |
| 1778068387 | 3.89° C | 80% | 1011.5 hPa | 0 mm | - | 88 W/m² | - |
| 1778068085 | 3.89° C | 84% | 1011.5 hPa | 0 mm | - | 81 W/m² | - |
| 1778067783 | 3.89° C | 84% | 1011.4 hPa | 0 mm | - | 60 W/m² | - |
* Rain latest hour (hover to see other rain measurements)
** Current wind speed in m/s (hover to see current wind gust speed)